Preview of NWS' New Version of Forecast
This preview is not operational and should not be used for support decisions.

Regional Weather Roundup (RWR)

Issued by National Weather Service (NWS)

                            
000
ASUS44 KJAN 211210
RWRMS 

MISSISSIPPI HOURLY WEATHER ROUNDUP
NATIONAL WEATHER SERVICE JACKSON MS
700 AM CDT TUE MAY 21 2019

NOTE: "FAIR: INDICATES FEW OR NO CLOUDS BELOW 12,000 FEET WITH NO
SIGNIFICANT WEATHER AND/OR OBSTRUCTIONS TO VISIBILITY.

MSZ001>002-007>008-010>013-018>021-025>028-034>036-211300-
NORTHWEST MISSISSIPPI
  
CITY           SKY/WX    TMP DP  RH WIND       PRES   REMARKS
BATESVILLE       N/A     72  70  94 CALM      29.83S                  
CLARKSDALE     CLOUDY    75  75 100 SE12G18   29.82R                  
CLEVELAND      PTSUNNY   74  74 100 S8        29.81R                  
GREENWOOD      FAIR      74  71  91 S8        29.83R                  
6HR MIN TEMP:  73; 6HR MAX TEMP:  77;                                

GREENVILLE     FAIR      75  71  87 S10       29.79S                  
6HR MIN TEMP:  74; 6HR MAX TEMP:  76;                                

OLIVE BRANCH   MOSUNNY   72  68  88 SE7       29.86R                  
OXFORD         PTSUNNY   70  68  94 SE7G13    29.86S                  
TUNICA           N/A     72  70  94 SE5       29.83S                  
WINONA         CLOUDY    72  72 100 S6        29.85R                  
$$

MSZ003>006-009-014>017-022>024-029>033-037>039-211300-
NORTHEAST MISSISSIPPI
  
CITY           SKY/WX    TMP DP  RH WIND       PRES   REMARKS
ABERDEEN       FAIR      70  70 100 SE5       29.90R                  
COLUMBUS AFB   PTSUNNY   71  69  94 S9        29.88R                  
6HR MIN TEMP:  67; 6HR MAX TEMP:  71;                                

CORINTH        FAIR      70  68  94 SE7       29.88S                  
GOLDN TRIANGLE CLOUDY    71  70  96 S9        29.89R                  
STARKVILLE     CLOUDY    70  68  94 S8        29.89S                  
TUPELO         FAIR      72  67  84 SE5       29.88R                  
6HR MIN TEMP:  70; 6HR MAX TEMP:  75;                                

$$

MSZ040-058-211300-
CENTRAL MISSISSIPPI
  
CITY           SKY/WX    TMP DP  RH WIND       PRES   REMARKS
JACKSON INTL   CLOUDY    74  70  87 S10       29.86R                  
6HR MIN TEMP:  73; 6HR MAX TEMP:  76;                                

JACKSON HAWKNS PTSUNNY   75  72  90 SE15      29.85S                  
6HR MIN TEMP:  74; 6HR MAX TEMP:  78;                                

MADISON        CLOUDY    72  72 100 S6        29.85R                  
MERIDIAN KEY   CLOUDY    74  71  91 S8        29.89F FOG              
6HR MIN TEMP:  70; 6HR MAX TEMP:  75;                                

MERIDIAN NAS   CLOUDY    74  72  93 S3        29.90S                  
6HR MIN TEMP:  70; 6HR MAX TEMP:  74;                                

RAYMOND        PTSUNNY   75  75 100 S10G20    29.84R                  
VICKSBURG VKS  PTSUNNY   75  73  94 S7G14     29.81S                  
$$

MSZ059>079-211300-
SOUTH MISSISSIPPI
  
CITY           SKY/WX    TMP DP  RH WIND       PRES   REMARKS
BROOKHAVEN     CLOUDY    75  72  88 SE7G14    29.88R                  
HATTIESBURG    CLOUDY    72  71  97 SE5       29.90S FOG              
6HR MIN TEMP:  70; 6HR MAX TEMP:  74;                                

LAUREL         CLOUDY    73  73  98 S7        29.89S FOG              
MCCOMB         CLOUDY    76  72  87 S10       29.87R                  
6HR MIN TEMP:  74; 6HR MAX TEMP:  76;                                

NATCHEZ        CLOUDY    74  71  91 S14G20    29.82R                  
6HR MIN TEMP:  73; 6HR MAX TEMP:  75;                                

PINE BELT      CLOUDY   N/A N/A N/A S7        29.90S FOG              
$$

MSZ080>082-211300-
COASTAL MISSISSIPPI
  
CITY           SKY/WX    TMP DP  RH WIND       PRES   REMARKS
BAY ST LOUIS   MOSUNNY   75  73  94 S6        29.88                   
BILOXI         PTSUNNY   81  73  78 S10       29.89R                  
6HR MIN TEMP:  78; 6HR MAX TEMP:  80;                                

PASCAGOULA     FAIR      72  69  90 CALM      29.91R                  
6HR MIN TEMP:  68; 6HR MAX TEMP:  74;                                

GULFPORT       FAIR      79  74  84 S7        29.89R                  
6HR MIN TEMP:  78; 6HR MAX TEMP:  79;                                

$$

LAZ007>009-015>016-023>026-211300-
NORTHEAST LOUISIANA
  
CITY           SKY/WX    TMP DP  RH WIND       PRES   REMARKS
BASTROP        CLOUDY    75  74  98 SE8       29.77S                  
TALLULAH/VBURG CLOUDY    75  71  87 S13       29.81R                  
6HR MIN TEMP:  74; 6HR MAX TEMP:  76;                                

VIDALIA        CLOUDY    75  72  90 S8        29.80S                  
$$